Home   Weather   Aspen   Past weeks
Flag for USA

Past Weather in Aspen, Colorado, USA — Yesterday and Last 2 Weeks

Now
26 °F

Light snow. Overcast.


Feels Like: 22 °F
Forecast: 36 / 20 °F
Wind: 3 mph from South

Location: Aspen-Pitkin County Airport

Current Time: Oct 21, 2019 at 12:21:06 pm

Latest Report: Oct 21, 2019 at 11:53 am


Visibility: 6 mi

Pressure: 30.13 "Hg (22.20 "Hg at 2411m altitude)

Humidity: 81%

Dew Point: 21 °F

Location of AspenLocation

Past Weather in Aspen — Graph

°F

Aspen Temperature Yesterday

Maximum temperature yesterday: 48 °F (at 12:53 am)
Minimum temperature yesterday: 25 °F (at 7:53 am)
Average temperature yesterday: 29 °F

High & Low Weather Summary for the Past Weeks

 TemperatureHumidityPressure
High70 °F (Oct 17, 3:53 pm)93% (Oct 10, 6:22 am)30.50 "Hg (Oct 10, 6:22 am)
Low11 °F (Oct 11, 1:53 am)5% (Oct 7, 12:53 pm)29.41 "Hg (Oct 9, 9:53 pm)
Average38 °F47%29.97 "Hg
* Reported Oct 6 11:53 am — Oct 21 11:09 am, Aspen. Weather by CustomWeather, © 2019

Note: Actual official high and low records may vary slightly from our data, if they occured in-between our weather recording intervals... More about our weather records

Advertising

Aspen Weather History for the Previous 24 Hours

Scroll right to see more
 ConditionsComfort  
Time TempWeatherWind HumidityBarometerVisibility
11:09 am
Mon, Oct 21
26 °FLight snow. Ice fog.No wind84%30.12 "Hg2 mi
10:53 am25 °FLight snow. Ice fog.No wind85%30.11 "Hg3 mi
10:24 am26 °FLight snow. Mostly cloudy.No wind81%30.12 "Hg1 mi
9:53 am26 °FLight snow. Mostly cloudy.No wind81%30.11 "Hg1 mi
9:33 am26 °FLight snow. Overcast.No wind81%30.11 "Hg1 mi
9:20 am26 °FLight snow. Overcast.No wind77%30.10 "Hg2 mi
9:00 am26 °FLight snow. Overcast.No wind77%30.10 "Hg4 mi
8:30 am26 °FMostly cloudy.No wind81%30.08 "Hg8 mi
7:53 am25 °FMostly cloudy.No wind81%30.05 "Hg10 mi
6:53 am25 °FPassing clouds.5 mph78%30.03 "Hg10 mi
5:53 am24 °FMostly cloudy.6 mph81%30.03 "Hg10 mi
5:13 am25 °FMostly cloudy.3 mph81%30.03 "Hg10 mi
5:01 am25 °FMostly cloudy.No wind85%30.03 "Hg10 mi
4:27 am26 °FMostly cloudy.No wind77%30.02 "Hg10 mi
3:53 am26 °FMostly cloudy.No wind77%29.98 "Hg10 mi
2:53 am25 °FOvercast.6 mph81%29.98 "Hg10 mi
1:53 am26 °FOvercast.3 mph81%30.00 "Hg10 mi
12:53 am25 °FOvercast.No wind85%30.02 "Hg10 mi
11:53 pm
Sun, Oct 20
26 °FOvercast.3 mph81%30.04 "Hg10 mi
10:53 pm26 °FMostly cloudy.No wind84%30.05 "Hg10 mi
9:53 pm25 °FOvercast.3 mph85%30.05 "Hg10 mi
8:53 pm26 °FLight snow. Ice fog.No wind88%30.07 "Hg5 mi
8:37 pm27 °FLight snow. Mostly cloudy.No wind81%30.08 "Hg2 mi
7:53 pm27 °FMostly cloudy.No wind78%30.06 "Hg10 mi
6:53 pm27 °FMostly cloudy.5 mph75%30.04 "Hg10 mi
5:53 pm28 °FBroken clouds.5 mph75%30.03 "Hg10 mi
5:28 pm28 °FCloudy.No wind78%30.05 "Hg6 mi
5:00 pm28 °FMostly cloudy.No wind81%30.04 "Hg10 mi
4:34 pm29 °FLight snow. Mostly cloudy.3 mph79%30.04 "Hg7 mi
4:10 pm30 °FLight snow. Mostly cloudy.10 mph69%30.03 "Hg1 mi
3:53 pm31 °FBroken clouds.5 mph69%29.96 "Hg3 mi
3:36 pm30 °FLight snow. Broken clouds.7 mph75%30.00 "Hg3 mi
2:53 pm33 °FMostly cloudy.5 mph52%29.90 "Hg10 mi
1:53 pm30 °FMore clouds than sun.5 mph59%29.91 "Hg9 mi
12:53 pm30 °FMostly cloudy.8 mph59%29.82 "Hg10 mi
Weather by CustomWeather, © 2019

See weather overview